{"data":{"norad_id":40946,"intl_designator":"2015-056A","name":"MORELOS 3","alt_names":[],"object_type":"PAYLOAD","status":"ACTIVE","operator":null,"country":"MEX","launch_date":"2015-10-02","launch_site_code":"AFETR","launch_vehicle":null,"mission":null,"orbit_class":"UNKNOWN","rcs_meters":25.0379,"size_class":null,"mass_kg":null,"dimensions":null,"purposes":["comms"],"wikipedia_slug":null,"has_3d_model":false,"image_url":null,"decayed_at":null,"tle_current":{"epoch":"2026-05-25T03:12:18.412416Z","epoch_age_seconds":70456,"freshness":"FRESH","line1":"1 40946U 15056A   26145.13354644 -.00000047  00000+0  00000+0 0  9998","line2":"2 40946   3.1690  14.4501 0002221 357.6601 165.5970  1.00272172 39056","mean_motion":1.00272172,"eccentricity":0.0002221,"inclination_deg":3.169,"raan_deg":14.4501,"arg_perigee_deg":357.6601,"mean_anomaly_deg":165.597,"bstar":0,"rev_number":3905,"period_min":1436.0913614198,"perigee_km":35777.121708518,"apogee_km":35795.851234264,"semimajor_km":42164.623471391,"source":"CELESTRAK","updated_at":"2026-05-25T13:38:13.994456Z"}}}